ONEWEB-0409

operational
NORAD ID: 50488 Int'l Des: 2021-132 Owner: ONEWEBN Country: UK Constellation: oneweb
LEOCIRCULARPOLARONEWEB_TYPE

About ONEWEB-0409

Description loading...

Live Position

Loading 3D Globe...

Upcoming Passes

Altitude History

Altitude vs Time

uPlot chart will show altitude changes over time

Two-Line Element Set

1 50488U 21132V 25250.26879485 .00000329 00000-0 89249-3 0 9996
2 50488 87.8780 77.4029 0001893 96.6881 263.4462 13.11418263178501
Epoch: Sep 7, 2025 • Age: 18 hours

Current Status

Altitude 1247.8 km
Velocity 7.23 km/s
Sub-Earth Point -84.93°S, 60.46°E
Launch Date Dec 27, 2021
Age 3.6 years
Type internet

Technical Details

Classification Payload
Mass 148.00 kg
Dry Mass 140.00 kg
Total Mass 148.00 kg
Length 1.30 m
Diameter 1.00 m
Span 5.00 m
Shape Trapezoid+2 pan
Manufacturer ONEWUS
Bus Type ARROW
Phase Status In Orbit
Owner/State ONEWEBN/UK

Large Constellations

Loading constellations...